Weather Service Report


770 
ASUS44 KLIX 181010
RWRLA 
LOUISIANA WEATHER ROUNDUP
NATIONAL WEATHER SERVICE NEW ORLEANS LA
400 AM CST THU DEC 18 2014

NOTE: "FAIR" INDICATES FEW OR NO CLOUDS BELOW 12,000 FEET WITH NO
      SIGNIFICANT WEATHER AND/OR OBSTRUCTIONS TO VISIBILITY.
      SKY/WX - SKY CONDITION AND SIGNIFICANT WEATHER.
      TMP - AIR TEMPERATURE.    DP   - DEWPOINT TEMPERATURE.
      RH  - RELATIVE HUMIDITY.  PRES - PRESSURE.
      HX  - HEAT INDEX.         WCI  - WIND CHILL INDEX.

*  THESE STATIONS ARE NOT NWS OR FAA STATIONS AND ARE NOT UNDER
   NWS QUALITY CONTROL.

LAZ040-048-061>063-065-066-069-181100-
SOUTHEAST LOUISIANA
  
CITY           SKY/WX    TMP DP  RH WIND       PRES   REMARKS
N.O. AUDUBON     N/A     53  47  80 MISG        N/A                   
N.O. INTL ARPT MOCLDY    50  44  80 CALM      30.17S                  
N.O. LAKEFRONT CLOUDY    56  49  77 E7        30.18S                  
N.O. DOWNTOWN* FAIR      55  45  67 NE3       30.17F                  
SLIDELL        CLOUDY    43  40  89 N3        30.17F                  
BATON ROUGE    CLOUDY    47  42  83 NE3       30.16F                  
BOOTHVILLE     MOCLDY    55  51  86 NE3       30.16S                  
BELLE CHASSE   MOCLDY    46  44  93 NE3       30.16F                  
BOGALUSA*        N/A     43  40  89 CALM      30.20S                  
GALLIANO*      PTSUNNY   55  50  85 MISG      30.16R                  
NEW ROADS*     CLOUDY    48  44  84 E5        30.15F                  
GONZALES*      FAIR      47  45  93 CALM      30.15F                  
HAMMOND*       NOT AVBL                                               
HOUMA*         MOCLDY    47  46  95 N5        30.16S                  
PORT FOURCHON* SUNNY     61  55  82 E5        30.17S                  

$$

LAZ041-044-053-054-181100-
SOUTHWEST LOUISIANA
  
CITY           SKY/WX    TMP DP  RH WIND       PRES   REMARKS
LAKE CHARLES   MOCLDY    53  49  86 E7        30.09F                  
LAFAYETTE      PTCLDY    50  42  74 E6        30.13F                  
PATTERSON      MOCLDY    50  45  81 E5        30.16F                  
SALT POINT       N/A     54  47  77 E3        30.14F                  
NEW IBERIA     MOCLDY    51  45  79 E7        30.14F                  
CHENAULT AIRPK NOT AVBL                                               

$$

LAZ027-028-181100-
CENTRAL LOUISIANA
  
CITY           SKY/WX    TMP DP  RH WIND       PRES   REMARKS
FORT POLK      CLOUDY    52  44  73 E6        30.10F                  
ALEXANDRIA INT CLOUDY    50  43  77 NE3       30.13F                  
ALEXANDRIA     CLOUDY    50  43  77 E6        30.13F                  

$$

LAZ001-002-181100-
NORTHWEST LOUISIANA
  
CITY           SKY/WX    TMP DP  RH WIND       PRES   REMARKS
SHREVEPORT     CLOUDY    45  43  93 NE7       30.15F                  
BARKSDALE AFB  NOT AVBL                                               
DTN SHREVEPORT LGT RAIN  44  41  89 NE5       30.17F                  

$$

LAZ014-016-181100-
NORTHEAST LOUISIANA
  
CITY           SKY/WX    TMP DP  RH WIND       PRES   REMARKS
MONROE         CLOUDY    45  41  86 E7        30.19F                  
TALLULAH       CLOUDY    46  39  76 NE6       30.19F                  

$$



771 
ASUS44 KLIX 181010
RWRLIX
NEW ORLEANS REGIONAL WEATHER ROUNDUP
NATIONAL WEATHER SERVICE NEW ORLEANS LA
400 AM CST THU DEC 18 2014

NOTE: "FAIR" INDICATES FEW OR NO CLOUDS BELOW 12,000 FEET WITH NO
      SIGNIFICANT WEATHER AND/OR OBSTRUCTIONS TO VISIBILITY.
      SKY/WX - SKY CONDITION AND SIGNIFICANT WEATHER.
      TMP - AIR TEMPERATURE.     DP    - DEWPOINT TEMPERATURE.
      RH  - RELATIVE HUMIDITY.   PRES  - PRESSURE.
      HI  - HEAT INDEX.          WCI   - WIND CHILL INDEX.

*  THESE STATIONS ARE NOT NWS OR FAA STATIONS AND ARE NOT UNDER
   NWS QUALITY CONTROL. 

LAZ038-040-048-061>063-065>067-069-181100-
SOUTHEAST LOUISIANA
  
CITY           SKY/WX    TMP DP  RH WIND       PRES   REMARKS
N.O. AUDUBON     N/A     53  47  80 MISG        N/A                   
N.O. INTL ARPT MOCLDY    50  44  80 CALM      30.17S                  
N.O. LAKEFRONT CLOUDY    56  49  77 E7        30.18S                  
N.O. DOWNTOWN*   N/A     55  45  67 NE3       30.17F                  
SLIDELL        CLOUDY    43  40  89 N3        30.17F                  
BATON ROUGE    CLOUDY    47  42  83 NE3       30.16F                  
BOOTHVILLE     MOCLDY    55  51  86 NE3       30.16S                  
BELLE CHASSE   MOCLDY    46  44  93 NE3       30.16F                  
BOGALUSA*        N/A     43  40  89 CALM      30.20S                  
GALLIANO*      PTSUNNY   55  50  85 MISG      30.16R                  
NEW ROADS*     CLOUDY    48  44  84 E5        30.15F                  
GONZALES*        N/A     47  45  93 CALM      30.15F                  
HAMMOND*       NOT AVBL                                               
HOUMA*         MOCLDY    47  46  95 N5        30.16S                  
PORT FOURCHON* SUNNY     61  55  82 E5        30.17S                  

$$

MSZ070-080>082-181100-
SOUTHERN MISSISSIPPI
  
CITY           SKY/WX    TMP DP  RH WIND       PRES   REMARKS
MCCOMB         CLOUDY    46  41  82 CALM      30.17F                  
GULFPORT       CLOUDY    47  41  80 CALM      30.17F                  
BILOXI         CLOUDY    46  42  86 NE3       30.18S                  
PASCAGOULA     MOCLDY    41  39  93 CALM      30.18S                  

$$

COASTAL OBSERVATIONS
LAKE AND NEARSHORE STATIONS
  
STATION/POSITION TIME  TEMP    WIND        PRES    WAVE
                       AIR SEA DIR/SP/G            HT/PER
                 (UTC) (F)     (DEG/KT/KT) (MB)    (FT/S)
PASCAGOULA       1000   48      20/  6/  8 1021.2
WAVELAND YACHT   1000   50      70/  7/  8 1020.8
GRAND ISLE       1000   60 62  100/  7/  9 1021.0
SOUTHWEST PASS   1000   57                 1020.8
NEW CANAL        1000   53 57   80/  3/  5 1021.9
SHELL BEACH      1000   56 59   60/  7/  7 1021.3

OFFSHORE STATIONS
  
STATION/POSITION TIME  TEMP    WIND        PRES    WAVE
                       AIR SEA DIR/SP/G            HT/PER
                 (UTC) (F)     (DEG/KT/KT) (MB)    (FT/S)
64 S DAUPHIN ISL 1000   63 74   70/  4/  6 1020.5    1/ 6

$$


Return to Home page


Western Regional Climate Center, wrcc@dri.edu